Regional Weather Roundup
Issued by NWS State College, PA

Home | Current Version | Previous Version | Graphics & Text | Print | Product List | Glossary Off
Versions: 1 2 3 4 5 6 7 8 9 10 11 12 13 14 15 16 17 18 19 20 21 22 23 24 25 26 27 28 29 30 31 32 33 34 35 36 37 38 39 40 41 42 43 44 45 46 47 48 49 50

000
ASUS41 KCTP 281110
RWRCTP

REGIONAL WEATHER ROUNDUP
NATIONAL WEATHER SERVICE STATE COLLEGE PA
600 AM EST WED JAN 28 2015

Note: "fair" indicates few or no clouds below 12,000 feet with no
significant weather and/or obstructions to visibility.

* = STATION THAT DOES NOT REPORT PRECIPITATION /E.G. RAIN...SNOW...ETC/
    THUNDER OR FOG.

PAZ002>004-007>009-013>016-020>023-029>032-281200-
WESTERN PENNSYLVANIA

CITY           SKY/WX    TMP DP  RH WIND       PRES   REMARKS
ERIE           PTCLDY     3  -2  79 S5        30.25R WCI  -6
MEADVILLE      MOCLDY     5   2  87 W5        30.18R WCI  -4
FRANKLIN*      MOCLDY     9   3  78 W5        30.18R WCI   0
NEW CASTLE     FAIR       3   1  91 CALM      30.26R
BEAVER COUNTY  NOT AVBL
BUTLER*        CLOUDY    12   9  85 SW6       30.22R WCI   3
PITTSBURGH INT FLURRIES  13  10  88 W7        30.23R WCI   3
PITTSBURGH     CLOUDY    13   8  81 W9        30.22R HAZE    WCI   1
INDIANA*       MOCLDY     1  -2  85 CALM      30.22R
LATROBE        PTCLDY    10   9  92 S5        30.24R WCI   2
WASHINGTON CO* CLOUDY    14  10  85 MISG      30.25R
$$

PAZ004>006-010>012-017>019-024>028-033>037-041-042-045-046-049>053-281200-
CENTRAL PENNSYLVANIA

CITY           SKY/WX    TMP DP  RH WIND       PRES   REMARKS
BRADFORD       PTCLDY     2  -2  83 NW7       30.07R WCI -11
DUBOIS         CLOUDY     6   3  87 W7        30.11R WCI  -6
CLEARFIELD     MOCLDY     8   4  83 SW6       30.13R WCI  -2
JOHNSTOWN      CLOUDY     9   5  84 W9        30.07R WCI  -4
ALTOONA        CLEAR     12   5  73 NW10      30.12R WCI  -1
STATE COLLEGE  PTCLDY     9   3  78 W9        30.13R WCI  -5
WILLIAMSPORT   CLEAR     11   2  67 W17G25    30.12R WCI  -6
SELINSGROVE    CLEAR      4  -1  80 CALM      30.13R
FT INDIANTOWN  CLEAR     17  -1  45 NW10G25   30.08R WCI   5
CAPITAL CITY   CLEAR     17   3  54 W7        30.11R WCI   8
HARRISBURG     PTCLDY    14   3  61 NW7       30.10R WCI   4
YORK           CLEAR     15   2  56 NW8       30.09R WCI   4
$$

PAZ038>040-043-044-047-048-054-055-060>062-067>071-281200-
EASTERN PENNSYLVANIA

CITY           SKY/WX    TMP DP  RH WIND       PRES   REMARKS
SCRANTON       CLEAR     10  -1  61 W7        30.03R WCI  -1
MOUNT POCONO   CLEAR      8   0  69 NW24G44   29.82S BLWGSNOWWCI -13
ALLENTOWN      CLEAR     17  -4  39 NW13G20   30.02R WCI   4
QUAKERTOWN*    NOT AVBL
READING        CLEAR     16  -1  47 NW12G23   30.06R WCI   3
LANCASTER      CLEAR     14   0  53 NW13      30.07R WCI   0
COATESVILLE    SUNNY     18   3  53 NW15G21   30.02R WCI   3
POTTSTOWN      CLEAR     15  -1  49 W9        30.04R WCI   3
BLUE BELL      CLEAR     19   0  42 W6        30.01R WCI  11
DOYLESTOWN     CLEAR     15  -1  49 NW12G20   29.98R WCI   2
WILLOW GROVE   NOT AVBL
NORTH PHILA    CLEAR     20  -3  36 NW14G22   30.03R WCI   7
PHILADELPHIA   PTCLDY    20  -1  40 NW13G23   30.04R WCI   7
$$



USA.gov is the U.S. government's official web portal to all federal, state and local government web resources and services.